| time (UTC) | temp F | wind direction | speed MPH | gust MPH | rain 1hr in | rain 24hr in | rain mn in | humidity % | barometer mb |
| 20260505130116 | 52 | 0 | 0.0 | 2.0 | 0.00 | 0.07 | 0.07 | 91 | 1013.6 |
| 20260505124608 | 52 | 0 | 0.0 | 2.0 | 0.01 | 0.07 | 0.07 | 91 | 1013.4 |
| 20260505124533 | 52 | 175 | 0.0 | 2.0 | 0.01 | 0.07 | 0.07 | 91 | 1011.0 |
| 20260505123115 | 52 | 0 | 0.0 | 3.0 | 0.03 | 0.07 | 0.07 | 90 | 1013.5 |
| 20260505123032 | 52 | 175 | 0.0 | 1.0 | 0.03 | 0.07 | 0.07 | 91 | 1011.0 |
| 20260505121552 | 52 | 175 | 0.0 | 3.0 | 0.04 | 0.07 | 0.07 | 90 | 1013.6 |
| 20260505121537 | 52 | 175 | 0.0 | 2.0 | 0.04 | 0.07 | 0.07 | 90 | 1011.0 |
| 20260505120101 | 52 | 175 | 1.0 | 2.0 | 0.06 | 0.07 | 0.07 | 89 | 1013.7 |
| 20260505120055 | 52 | 175 | 1.0 | 2.0 | 0.06 | 0.07 | 0.07 | 90 | 1011.1 |
| 20260505114555 | 52 | 175 | 0.0 | 2.0 | 0.05 | 0.06 | 0.06 | 89 | 1013.8 |
| 20260505114528 | 52 | 175 | 0.0 | 2.0 | 0.05 | 0.06 | 0.06 | 89 | 1011.2 |
| 20260505113059 | 52 | 0 | 0.0 | 3.0 | 0.03 | 0.04 | 0.04 | 88 | 1013.9 |
| 20260505113028 | 52 | 175 | 0.0 | 3.0 | 0.03 | 0.04 | 0.04 | 89 | 1011.2 |
| 20260505111556 | 52 | 0 | 0.0 | 1.0 | 0.02 | 0.03 | 0.03 | 87 | 1014.1 |
| 20260505111527 | 52 | 175 | 0.0 | 1.0 | 0.02 | 0.03 | 0.03 | 88 | 1011.3 |
| 20260505101554 | 53 | 0 | 0.0 | 0.0 | 0.01 | 0.01 | 0.01 | 85 | 1014.2 |
| 20260505101524 | 53 | 175 | 0.0 | 0.0 | 0.01 | 0.01 | 0.01 | 86 | 1011.1 |
| 20260505100056 | 53 | 0 | 0.0 | 0.0 | 0.01 | 0.01 | 0.01 | 84 | 1014.3 |
| 20260505100025 | 53 | 175 | 0.0 | 0.0 | 0.01 | 0.01 | 0.01 | 85 | 1011.4 |
| 20260505094550 | 53 | 0 | 0.0 | 0.0 | 0.01 | 0.01 | 0.01 | 84 | 1014.4 |
| 20260505094520 | 53 | 175 | 0.0 | 0.0 | 0.01 | 0.01 | 0.01 | 85 | 1011.5 |
| 20260505093054 | 53 | 0 | 0.0 | 0.0 | 0.01 | 0.01 | 0.01 | 84 | 1014.6 |
| 20260505093019 | 53 | 175 | 0.0 | 0.0 | 0.01 | 0.01 | 0.01 | 84 | 1011.5 |
| 20260505091616 | 53 | 0 | 0.0 | 0.0 | 0.00 | 0.00 | 0.00 | 83 | 1014.6 |
| 20260505091525 | 53 | 175 | 0.0 | 0.0 | 0.00 | 0.00 | 0.00 | 83 | 1011.8 |
| 20260505090109 | 53 | 0 | 0.0 | 0.0 | 0.00 | 0.00 | 0.00 | 82 | 1014.7 |
| 20260505090035 | 53 | 175 | 0.0 | 0.0 | 0.00 | 0.00 | 0.00 | 83 | 1012.0 |
| 20260505084607 | 53 | 0 | 0.0 | 0.0 | 0.00 | 0.00 | 0.00 | 81 | 1014.9 |
| 20260505084515 | 53 | 175 | 0.0 | 0.0 | 0.00 | 0.00 | 0.00 | 82 | 1012.0 |
| 20260505083107 | 54 | 0 | 0.0 | 0.0 | 0.00 | 0.00 | 0.00 | 81 | 1015.2 |
| 20260505083015 | 54 | 175 | 0.0 | 0.0 | 0.00 | 0.00 | 0.00 | 81 | 1012.3 |
| 20260505081602 | 54 | 0 | 0.0 | 0.0 | 0.00 | 0.00 | 0.00 | 80 | 1015.4 |
| 20260505081514 | 54 | 175 | 0.0 | 0.0 | 0.00 | 0.00 | 0.00 | 81 | 1012.6 |
| 20260505080009 | 55 | 175 | 0.0 | 0.0 | 0.00 | 0.00 | 0.00 | 80 | 1012.6 |
| 20260505074553 | 55 | 0 | 0.0 | 0.0 | 0.00 | 0.00 | 0.00 | 78 | 1015.7 |
| 20260505074507 | 55 | 175 | 0.0 | 0.0 | 0.00 | 0.00 | 0.00 | 79 | 1012.7 |
| 20260505073102 | 55 | 0 | 0.0 | 0.0 | 0.00 | 0.00 | 0.00 | 76 | 1015.8 |
| 20260505073006 | 55 | 175 | 0.0 | 0.0 | 0.00 | 0.00 | 0.00 | 76 | 1012.8 |
| 20260505071612 | 55 | 0 | 0.0 | 1.0 | 0.00 | 0.00 | 0.00 | 74 | 1015.8 |
| 20260505071513 | 55 | 175 | 0.0 | 1.0 | 0.00 | 0.00 | 0.00 | 75 | 1012.7 |
| 20260505070055 | 55 | 0 | 0.0 | 1.0 | 0.00 | 0.00 | 0.00 | 75 | 1015.8 |
| 20260505070003 | 55 | 175 | 0.0 | 1.0 | 0.00 | 0.00 | 0.00 | 75 | 1012.6 |
| 20260505064555 | 55 | 0 | 0.0 | 3.0 | 0.00 | 0.00 | 0.00 | 75 | 1015.7 |
| 20260505064506 | 55 | 175 | 0.0 | 2.0 | 0.00 | 0.00 | 0.00 | 76 | 1012.7 |
| 20260505063053 | 55 | 0 | 0.0 | 4.0 | 0.00 | 0.00 | 0.00 | 78 | 1015.8 |
| 20260505063002 | 55 | 175 | 0.0 | 3.0 | 0.00 | 0.00 | 0.00 | 79 | 1012.7 |
| 20260505061559 | 55 | 0 | 0.0 | 6.0 | 0.00 | 0.00 | 0.00 | 80 | 1015.8 |
| 20260505061501 | 55 | 169 | 0.0 | 5.0 | 0.00 | 0.00 | 0.00 | 80 | 1012.8 |
| 20260505060001 | 56 | 194 | 1.0 | 4.0 | 0.00 | 0.00 | 0.00 | 80 | 1013.0 |
| 20260505054628 | 56 | 194 | 0.0 | 2.0 | 0.00 | 0.00 | 0.00 | 78 | 1013.1 |
| 20260505054553 | 56 | 194 | 0.0 | 2.0 | 0.00 | 0.00 | 0.00 | 78 | 1016.0 |
| 20260505053114 | 56 | 195 | 0.0 | 3.0 | 0.00 | 0.00 | 0.00 | 77 | 1013.1 |
| 20260505053052 | 56 | 0 | 0.0 | 5.0 | 0.00 | 0.00 | 0.00 | 76 | 1016.0 |
| 20260505051559 | 56 | 196 | 0.0 | 3.0 | 0.00 | 0.00 | 0.00 | 75 | 1013.1 |
| 20260505051550 | 56 | 0 | 0.0 | 3.0 | 0.00 | 0.00 | 0.00 | 74 | 1016.0 |
| 20260505041601 | 57 | 204 | 0.0 | 3.0 | 0.00 | 0.00 | 0.00 | 72 | 1013.1 |
| 20260505041555 | 57 | 0 | 0.0 | 3.0 | 0.00 | 0.00 | 0.00 | 72 | 1016.0 |
| 20260505040058 | 57 | 0 | 0.0 | 4.0 | 0.00 | 0.00 | 0.00 | 70 | 1016.0 |
| 20260505034555 | 57 | 218 | 0.0 | 4.0 | 0.00 | 0.00 | 0.00 | 69 | 1012.7 |
| 20260505033055 | 57 | 218 | 0.0 | 2.0 | 0.00 | 0.00 | 0.00 | 66 | 1012.6 |
| 20260505033052 | 57 | 218 | 0.0 | 3.0 | 0.00 | 0.00 | 0.00 | 65 | 1015.7 |
| 20260505031608 | 58 | 218 | 0.0 | 2.0 | 0.00 | 0.00 | 0.00 | 66 | 1012.6 |
| 20260505031554 | 58 | 0 | 0.0 | 2.0 | 0.00 | 0.00 | 0.00 | 65 | 1015.5 |
| 20260505030109 | 59 | 218 | 0.0 | 4.0 | 0.00 | 0.00 | 0.00 | 64 | 1015.4 |
| 20260505030054 | 59 | 218 | 0.0 | 4.0 | 0.00 | 0.00 | 0.00 | 65 | 1012.2 |
| 20260505024556 | 59 | 0 | 0.0 | 4.0 | 0.00 | 0.00 | 0.00 | 61 | 1015.4 |
| 20260505024554 | 59 | 221 | 0.0 | 4.0 | 0.00 | 0.00 | 0.00 | 61 | 1012.1 |
| 20260505023111 | 60 | 190 | 0.0 | 3.0 | 0.00 | 0.00 | 0.00 | 61 | 1012.1 |
| 20260505023055 | 60 | 190 | 0.0 | 3.0 | 0.00 | 0.00 | 0.00 | 61 | 1015.1 |
| 20260505021554 | 61 | 197 | 0.0 | 4.0 | 0.00 | 0.00 | 0.00 | 58 | 1015.2 |
| 20260505021552 | 61 | 199 | 1.0 | 5.0 | 0.00 | 0.00 | 0.00 | 59 | 1012.1 |
| 20260505020059 | 62 | 0 | 0.0 | 5.0 | 0.00 | 0.00 | 0.00 | 57 | 1015.2 |
| 20260505020053 | 62 | 198 | 0.0 | 5.0 | 0.00 | 0.00 | 0.00 | 58 | 1012.2 |
| 20260505014607 | 63 | 0 | 0.0 | 3.0 | 0.00 | 0.00 | 0.00 | 55 | 1015.1 |
| 20260505014558 | 63 | 194 | 0.0 | 3.0 | 0.00 | 0.00 | 0.00 | 56 | 1012.0 |
| 20260505013105 | 64 | 194 | 0.0 | 4.0 | 0.00 | 0.00 | 0.00 | 54 | 1012.0 |
| 20260505013056 | 64 | 0 | 0.0 | 4.0 | 0.00 | 0.00 | 0.00 | 54 | 1015.1 |
| 20260505011557 | 65 | 0 | 0.0 | 4.0 | 0.00 | 0.00 | 0.00 | 52 | 1015.0 |
| 20260505011551 | 65 | 177 | 0.0 | 4.0 | 0.00 | 0.00 | 0.00 | 52 | 1011.9 |
| 20260505010050 | 65 | 199 | 0.0 | 3.0 | 0.00 | 0.00 | 0.00 | 51 | 1012.0 |
| 20260505004555 | 67 | 275 | 0.0 | 7.0 | 0.00 | 0.00 | 0.00 | 50 | 1011.7 |
| 20260505004553 | 67 | 0 | 0.0 | 7.0 | 0.00 | 0.00 | 0.00 | 49 | 1015.0 |
| 20260505003059 | 68 | 0 | 0.0 | 5.0 | 0.00 | 0.00 | 0.00 | 47 | 1014.8 |
| 20260505003049 | 68 | 275 | 0.0 | 4.0 | 0.00 | 0.00 | 0.00 | 47 | 1011.9 |
| 20260505001557 | 70 | 0 | 0.0 | 5.0 | 0.00 | 0.00 | 0.00 | 46 | 1014.8 |
| 20260505001552 | 70 | 198 | 0.0 | 5.0 | 0.00 | 0.00 | 0.00 | 47 | 1012.0 |
| 20260505000105 | 70 | 224 | 0.0 | 7.0 | 0.00 | 0.00 | 0.00 | 46 | 1011.7 |
| 20260505000056 | 70 | 0 | 0.0 | 7.0 | 0.00 | 0.00 | 0.00 | 46 | 1014.9 |
| 20260504234555 | 68 | 0 | 0.0 | 3.0 | 0.00 | 0.00 | 0.00 | 46 | 1014.7 |
| 20260504234545 | 68 | 221 | 0.0 | 3.0 | 0.00 | 0.00 | 0.00 | 46 | 1011.8 |
| 20260504233050 | 68 | 0 | 0.0 | 2.0 | 0.00 | 0.00 | 0.00 | 46 | 1014.6 |
| 20260504233045 | 68 | 284 | 0.0 | 2.0 | 0.00 | 0.00 | 0.00 | 47 | 1011.7 |
| 20260504231553 | 68 | 0 | 0.0 | 4.0 | 0.00 | 0.00 | 0.00 | 43 | 1014.7 |
| 20260504231546 | 68 | 284 | 0.0 | 2.0 | 0.00 | 0.00 | 0.00 | 44 | 1011.6 |
| 20260504230100 | 68 | 283 | 0.0 | 3.0 | 0.00 | 0.00 | 0.00 | 42 | 1011.8 |
| 20260504230052 | 68 | 0 | 0.0 | 3.0 | 0.00 | 0.00 | 0.00 | 41 | 1014.7 |
| 20260504224552 | 69 | 0 | 0.0 | 3.0 | 0.00 | 0.00 | 0.00 | 43 | 1015.0 |
| 20260504224542 | 69 | 290 | 0.0 | 2.0 | 0.00 | 0.00 | 0.00 | 44 | 1012.1 |
| 20260504223109 | 69 | 0 | 0.0 | 7.0 | 0.00 | 0.00 | 0.00 | 42 | 1015.2 |
| 20260504223041 | 69 | 291 | 0.0 | 6.0 | 0.00 | 0.00 | 0.00 | 43 | 1012.2 |
| 20260504221553 | 69 | 0 | 0.0 | 2.0 | 0.00 | 0.00 | 0.00 | 43 | 1015.2 |
| 20260504221550 | 69 | 241 | 0.0 | 2.0 | 0.00 | 0.00 | 0.00 | 43 | 1012.4 |
| 20260504220038 | 67 | 241 | 0.0 | 1.0 | 0.00 | 0.00 | 0.00 | 45 | 1012.5 |
| 20260504214555 | 67 | 0 | 0.0 | 2.0 | 0.00 | 0.00 | 0.00 | 46 | 1015.5 |
| 20260504214537 | 67 | 240 | 0.0 | 1.0 | 0.00 | 0.00 | 0.00 | 47 | 1012.7 |
| 20260504213106 | 67 | 240 | 0.0 | 5.0 | 0.00 | 0.00 | 0.00 | 44 | 1015.7 |
| 20260504213043 | 67 | 240 | 0.0 | 5.0 | 0.00 | 0.00 | 0.00 | 45 | 1013.0 |
| 20260504211649 | 66 | 0 | 0.0 | 4.0 | 0.00 | 0.00 | 0.00 | 48 | 1016.0 |
| 20260504211535 | 66 | 250 | 0.0 | 2.0 | 0.00 | 0.00 | 0.00 | 49 | 1013.1 |
| 20260504210056 | 66 | 0 | 0.0 | 1.0 | 0.00 | 0.00 | 0.00 | 47 | 1016.1 |
| 20260504210035 | 66 | 205 | 0.0 | 1.0 | 0.00 | 0.00 | 0.00 | 47 | 1013.1 |
| 20260504204556 | 66 | 0 | 0.0 | 2.0 | 0.00 | 0.00 | 0.00 | 48 | 1016.1 |
| 20260504204538 | 66 | 205 | 0.0 | 2.0 | 0.00 | 0.00 | 0.00 | 49 | 1013.2 |
| 20260504203107 | 67 | 205 | 0.0 | 4.0 | 0.00 | 0.00 | 0.00 | 47 | 1016.0 |
| 20260504203034 | 67 | 205 | 0.0 | 1.0 | 0.00 | 0.00 | 0.00 | 48 | 1013.2 |
| 20260504201614 | 67 | 203 | 1.0 | 7.0 | 0.00 | 0.00 | 0.00 | 46 | 1016.2 |
| 20260504201533 | 67 | 203 | 1.0 | 5.0 | 0.00 | 0.00 | 0.00 | 47 | 1013.2 |
| 20260504200100 | 67 | 0 | 0.0 | 3.0 | 0.00 | 0.00 | 0.00 | 54 | 1016.0 |
| 20260504200030 | 67 | 204 | 0.0 | 3.0 | 0.00 | 0.00 | 0.00 | 54 | 1013.5 |
| 20260504194557 | 65 | 142 | 0.0 | 3.0 | 0.00 | 0.00 | 0.00 | 51 | 1016.4 |
| 20260504194527 | 65 | 142 | 0.0 | 4.0 | 0.00 | 0.00 | 0.00 | 53 | 1013.7 |
| 20260504193107 | 64 | 194 | 0.0 | 5.0 | 0.00 | 0.00 | 0.00 | 55 | 1016.6 |
| 20260504193025 | 64 | 194 | 0.0 | 5.0 | 0.00 | 0.00 | 0.00 | 55 | 1013.7 |
| 20260504191612 | 64 | 0 | 1.0 | 7.0 | 0.00 | 0.00 | 0.00 | 55 | 1016.6 |
| 20260504191526 | 64 | 192 | 0.0 | 7.0 | 0.00 | 0.00 | 0.00 | 55 | 1013.8 |
| 20260504190109 | 64 | 199 | 0.0 | 6.0 | 0.00 | 0.00 | 0.00 | 52 | 1016.8 |
| 20260504190024 | 64 | 199 | 0.0 | 6.0 | 0.00 | 0.00 | 0.00 | 52 | 1014.0 |
| 20260504184559 | 63 | 197 | 1.0 | 6.0 | 0.00 | 0.00 | 0.00 | 55 | 1016.6 |
| 20260504184521 | 63 | 152 | 1.0 | 5.0 | 0.00 | 0.00 | 0.00 | 56 | 1013.8 |
| 20260504183057 | 63 | 210 | 0.0 | 4.0 | 0.00 | 0.00 | 0.00 | 54 | 1016.7 |
| 20260504183020 | 63 | 210 | 0.0 | 4.0 | 0.00 | 0.00 | 0.00 | 54 | 1014.0 |
| 20260504181601 | 62 | 0 | 1.0 | 3.0 | 0.00 | 0.00 | 0.00 | 57 | 1017.0 |
| 20260504181516 | 62 | 211 | 1.0 | 3.0 | 0.00 | 0.00 | 0.00 | 58 | 1014.2 |
| 20260504180105 | 62 | 216 | 1.0 | 9.0 | 0.00 | 0.00 | 0.00 | 58 | 1016.9 |
| 20260504180015 | 62 | 216 | 1.0 | 8.0 | 0.00 | 0.00 | 0.00 | 59 | 1013.8 |
| 20260504174556 | 61 | 0 | 0.0 | 3.0 | 0.00 | 0.00 | 0.00 | 60 | 1016.7 |
| 20260504174512 | 61 | 215 | 0.0 | 3.0 | 0.00 | 0.00 | 0.00 | 61 | 1013.8 |
| 20260504173057 | 61 | 216 | 1.0 | 7.0 | 0.00 | 0.00 | 0.00 | 59 | 1016.6 |
| 20260504173011 | 61 | 223 | 1.0 | 7.0 | 0.00 | 0.00 | 0.00 | 59 | 1013.8 |
| 20260504171554 | 60 | 208 | 0.0 | 4.0 | 0.00 | 0.00 | 0.00 | 59 | 1016.4 |
| 20260504171509 | 60 | 208 | 0.0 | 4.0 | 0.00 | 0.00 | 0.00 | 60 | 1013.6 |
| 20260504160103 | 57 | 190 | 0.0 | 1.0 | 0.00 | 0.00 | 0.00 | 75 | 1013.5 |